Tracking 19283 objects as of 17-Nov-2018
HD Live streaming from Space Station
objects crossing your sky now

GORIZONT 31

Track GORIZONT 31 now!
GORIZONT 31 is classified as:


NORAD ID: 23775
Int'l Code: 1996-005A
Perigee: 35,821.8 km
Apogee: 35,975.2 km
Inclination: 14.4 °
Period: 1,441.5 minutes
Semi major axis: 42269 km
RCS: 12.5892 m2 (large)
Launch date: January 25, 1996
Source: Commonwealth of Independent States (former USSR) (CIS)
Launch site: TYURATAM MISSILE AND SPACE COMPLEX (TTMTR)

Telecommunications; telephone and television communications to the Russian republic.
aabbcc
Your satellite tracking list
Your tracking list is empty




NASA's NSSDC Master Catalog

Two Line Element Set (TLE):
1 23775U 96005A   18320.95310451 -.00000225  00000-0  00000+0 0  9995
2 23775  14.3581  16.9193 0018146 182.3105 178.4596  0.99899254 83384
Source of the keplerian elements: AFSPC